Location: Kergrach
(48.3833°N, 4.5167°W)
Time: 16:57:56
(UTC+00:00)

CZ-4C R/B - Pass Details

Date: 18 February 2020
Orbit: 642 x 1360 km, 63.4° (Epoch: 29 March)

Event Time Altitude Azimuth Distance (km) Brightness Sun altitude
Exits shadow 05:47:19 19° 303° (WNW) 1,941 3.6 -16.2°
Maximum altitude 05:49:57 26° 341° (NNW) 1,732 3.6 -15.8°
Drops below altitude 10° 05:55:23 10° 37° (NE) 2,845 5.4 -14.9°
Sets 05:58:47 0° 49° (NE) 3,936 6.4 -14.3°
